Hourly Weather Roundup
Issued by NWS Central Illinois

Home | Current Version | Previous Version | Text Only | Print | Product List | Glossary On
Versions: 1 2 3 4 5 6 7 8 9 10 11 12 13 14 15 16 17 18 19 20 21 22 23 24 25 26 27 28 29 30 31 32 33 34 35 36 37 38 39 40 41 42 43 44 45 46 47 48 49 50
000
NZUS43 KILX 232310
HWRILX

Area Weather Roundup
National Weather Service Lincoln IL
600 PM CDT SUN APR 23 2017

NOTE:  "FAIR" indicates few or no clouds below 12,000 feet, with
       no sigificant weather and/or obstructions to visibility.


CITY           SKY/WX    TMP DP  RH WIND       PRES   REMARKS
Bloomington    SUNNY     70  26  19 NE10      30.04R
Champaign      SUNNY     71  28  20 NE14      30.01S
Danville       SUNNY     69  29  22 NE12      29.98S
Decatur        SUNNY     69  31  24 NE12      30.01S
Effingham      SUNNY     72  33  23 NE8       29.99S
Flora          SUNNY     73  29  20 N12G17    29.97R
Galesburg      SUNNY     71  31  23 NE5       30.02F
Jacksonville   SUNNY     71  28  20 NE7       30.03S
Lacon          SUNNY     70  29  21 NW5       30.02F
Lawrenceville  SUNNY     72  31  22 NE14G24   29.95S
Litchfield     SUNNY     69  32  25 N9        30.00F
$$


CITY           SKY/WX    TMP DP  RH WIND       PRES   REMARKS
Lincoln        SUNNY     72  28  19 NE5       30.02S
Macomb         SUNNY     71  25  17 E3        30.05S
Mattoon        SUNNY     70  25  18 NE16      29.98S
Mt Carmel AP   SUNNY     71  29  21 NE14G22   29.94S
Olney-Noble AP SUNNY     71  31  22 NE13      29.96S
Paris AP       SUNNY     70  30  22 NE10G18   30.00R
Peoria         SUNNY     70  28  21 NE3       30.03F
Pontiac        SUNNY     72  22  15 NE5       30.03S
Rantoul        SUNNY     72  25  17 NE10G16   30.01S
Robinson       SUNNY     70  32  24 NE16G22   29.96S
Springfield    SUNNY     72  29  20 NE9       30.02S
Taylorville    SUNNY     71  26  18 NE10      30.01S
$$

...REGIONAL REPORTS...


CITY           SKY/WX    TMP DP  RH WIND       PRES   REMARKS
Chicago O`Hare MOSUNNY   68  30  24 E13       30.03S
Kankakee       SUNNY     70  20  15 NE6       30.05S
Moline         SUNNY     71  29  21 CALM      30.01F
Mount Sterling SUNNY     70  25  18 CALM      30.03S
Mount Vernon   SUNNY     71  30  21 NE9G20    29.96R
Pittsfield     SUNNY     71  25  18 N5        30.05S
Quincy         SUNNY     71  25  17 E8        30.03S
Rockford       MOSUNNY   71  35  26 S3        30.03S
$$


CITY           SKY/WX    TMP DP  RH WIND       PRES   REMARKS
Burlington     SUNNY     70  29  21 VRB5      30.02F
Cedar Rapids   CLOUDY    69  29  22 S10       30.00S
Des Moines     CLOUDY    70  29  21 S12       29.99F
Kirksville     SUNNY     70  33  25 SE8       30.03F
Ottumwa        SUNNY     71  30  21 S12       30.01S
St Louis       SUNNY     73  29  19 NE13      30.01F
$$


CITY           SKY/WX    TMP DP  RH WIND       PRES   REMARKS
Terre Haute    SUNNY     69  27  20 NE15G21   29.98R
Evansville     SUNNY     71  32  23 NE17G26   29.92R
Indianapolis   SUNNY     69  30  23 NE16      29.98S
Lafayette      SUNNY     67  35  30 NE9       30.01R
Madison        PTSUNNY   70  34  26 S5        29.99S
Milwaukee      MOSUNNY   43  36  76 N15       30.10R
$$






USA.gov is the U.S. government's official web portal to all federal, state and local government web resources and services.